OpenBCM V1.07b12 (Linux)

Packet Radio Mailbox

DB0FHN

[JN59NK Nuernberg]

 Login: GUEST





  
OK1MJO > VESMIR   08.04.03 12:46l 121 Lines 6414 Bytes #999 (0) @ WW
BID : 84DOK0NAG01C
Read: DB0FHN GUEST
Subj: Weather Kepler 2-line
Path: DB0FHN<DB0RGB<OK0PPL<OK0NAG
Sent: 030408/1031z @:OK0NAG.#BOH.CZE.EU [TCP/IP BBS Plzen] bcm2.01e+

Od: OK1MJO @OK0NAG.#BOH.CZE.EU (Martin JO60SH) Pro: VESMIR @ WW
X-Info: Prijato od 217.66.168.75 za pomoci HTTP rozhrani

GOES 2                  
1 10061U 77048A   03094.96280815 -.00000035  00000-0  00000+0 0  1427
2 10061  14.1470  13.0786 0012628 201.4758 158.4375  0.99399923 39286
GOES 6                  
1 14050U 83041A   03090.91744856  .00000001  00000-0  10000-3 0  4330
2 14050  10.4525  35.2971 0004606 346.4424  13.5404  1.00314251131053
GOES 7                  
1 17561U 87022A   03093.48039988  .00000040  00000-0  10000-3 0  9126
2 17561   7.6868  55.2582 0005345 272.8753 215.5563  1.00267259 42189
INSAT 1D                
1 20643U 90051A   03092.63979965 -.00000083  00000-0  10000-3 0  9040
2 20643   4.3052  80.4669 0017473 329.1696  85.2735  1.00286524 33758
FENGYUN 1B              
1 20788U 90081A   03096.98702225 -.00000090  00000-0 -29914-4 0  9244
2 20788  99.0359  78.7319 0017308  96.6576 263.6557 14.02156457644187
METEOSAT 5 (MOP 2)      
1 21140U 91015B   03093.82119222  .00000024  00000-0  10000-3 0  7826
2 21140   5.7306  69.6177 0000971   3.5286 117.1009  1.00267855 46494
NOAA 12                 
1 21263U 91032A   03097.64796587  .00000460  00000-0  21476-3 0   332
2 21263  98.6327  86.4868 0011761 241.5830 118.4161 14.25117864618062
METEOR 3-5              
1 21655U 91056A   03096.92838110  .00000051  00000-0  10000-3 0  5817
2 21655  82.5618   5.4113 0014526  79.1253 281.1503 13.16982587559717
INSAT 2A                
1 22027U 92041A   03087.76746393 -.00000209  00000-0  10000-3 0  5567
2 22027   4.7015  77.6432 0005532 321.9917  38.1984  1.00220197 39061
INSAT 2B                
1 22724U 93048B   03096.07033243 -.00000350  00000-0  10000-3 0  3505
2 22724   2.2334  89.8264 0003412 301.4566 299.4708  1.00268799 35868
METEOR 2-21             
1 22782U 93055A   03097.19308071  .00000091  00000-0  68912-4 0  5627
2 22782  82.5528 177.1368 0021933 208.6584 151.3391 13.83534459484674
METEOSAT 6              
1 22912U 93073B   03088.00784036  .00000046  00000-0  00000+0 0  7420
2 22912   2.7704  82.2385 0002591 327.9228 148.0415  1.00277243 32684
GOES 8                  
1 23051U 94022A   03096.39350647 -.00000243  00000-0  00000+0 0  6786
2 23051   0.4111 100.9447 0002806 310.3679 209.4533  1.00261842 40273
ELEKTRO                 
1 23327U 94069A   03094.49033995  .00000003  00000-0  10000-3 0  7976
2 23327   5.3803  74.3794 0002562 177.7995 182.3298  1.00268282 30894
NOAA 14                 
1 23455U 94089A   03097.61487722  .00000195  00000-0  12892-3 0  5856
2 23455  99.1850 117.4454 0010187  93.6534 266.5802 14.13316539426261
GMS 5                   
1 23522U 95011B   03097.10962711 -.00000280  00000-0  00000+0 0  1785
2 23522   1.8666  83.4969 0000838   5.1843 285.3962  1.00260334 29366
GOES 9                  
1 23581U 95025A   03096.38254196 -.00000069  00000-0  00000+0 0  6011
2 23581   0.1573 276.6224 0012615 240.7930 343.3297  1.00073611 28837
INSAT 2C                
1 23731U 95067B   03092.90907318  .00000122  00000-0  10000-3 0  8958
2 23731   0.8966 104.5766 0012028 329.3189 132.1403  1.00276168 26827
GOES 10                 
1 24786U 97019A   03097.35404681  .00000094  00000-0  00000+0 0  6262
2 24786   0.2623 103.2657 0003662 305.4827 138.4160  1.00277307 21814
FENGYUN 2A              
1 24834U 97029A   03095.71056275 -.00000194  00000-0  00000+0 0  9936
2 24834   2.6843  87.9112 0000874 245.2405 202.7758  1.00272039 21306
ORBVIEW 2 (SEASTAR)     
1 24883U 97037A   03096.91604394  .00000774  00000-0  17371-3 0   839
2 24883  98.2168 197.3828 0002595  65.5205 294.6264 14.59249472302255
METEOSAT 7              
1 24932U 97049B   03096.90157182 -.00000003  00000-0  00000+0 0  2716
2 24932   0.3217  75.5796 0000801 248.2361 195.1509  1.00268495 20499
NOAA 15                 
1 25338U 98030A   03097.65065021  .00000301  00000-0  14890-3 0   692
2 25338  98.5477 118.4957 0010390 172.0446 188.0899 14.24268731254647
RESURS O1-N4            
1 25394U 98043A   03097.56013679  .00000231  00000-0  11963-3 0  4885
2 25394  98.6232 174.5812 0001435   8.1554 351.9649 14.23896897246364
INSAT 2E                
1 25666U 99016A   03095.60189472 -.00000162  00000-0  00000+0 0  6608
2 25666   0.0432  75.0865 0007051 204.2102 213.8998  1.00272032 14801
FENGYUN 1C              
1 25730U 99025A   03097.56420614  .00000012  00000-0  29586-4 0  8063
2 25730  98.6316 120.1566 0013744 223.6619 136.3466 14.11739433201403
QUIKSCAT                
1 25789U 99034A   03096.90907453  .00000131  00000-0  72427-4 0  7800
2 25789  98.6366 283.3380 0001356  52.3332 307.7971 14.26595528197739
INSAT 3B                
1 26108U 00016B   03096.81301006 -.00000162  00000-0  00000+0 0  4186
2 26108   0.0288 131.6957 0013013 176.4639 262.2836  1.00272936 11150
GOES 11                 
1 26352U 00022A   03097.23987701 -.00000026  00000-0  10000-3 0  1005
2 26352   0.2599  99.4057 0002990 226.3821 201.6232  1.00271003 10712
FENGYUN 2B              
1 26382U 00032A   03097.30640745 -.00000325  00000-0  00000+0 0  8241
2 26382   0.4498 288.9457 0002312 218.5823 262.4008  1.00271477 10190
NOAA 16                 
1 26536U 00055A   03097.34490585  .00000468  00000-0  27987-3 0  2794
2 26536  98.9091  45.2954 0010722 166.6336 193.5129 14.11934067130899
GOES 12                 
1 26871U 01031A   03097.38179619 -.00000234  00000-0  10000-3 0  9042
2 26871   0.2087 275.1726 0001086  75.6274 262.1008  1.00351701  6316
METEOR-3M               
1 27001U 01056A   03096.97984367  .00000139  00000-0  21472-3 0  3146
2 27001  99.5847 334.7434 0014479 127.9600 232.2855 13.68202015 65952
INSAT 3C                
1 27298U 02002A   03096.84891458 -.00000072  00000-0  00000+0 0  2472
2 27298   0.0492 141.1852 0004790 263.0585 170.0303  1.00272347  4415
FENGYUN 1D              
1 27431U 02024B   03097.23745209  .00000125  00000-0  96317-4 0  2559
2 27431  98.7617 144.9214 0015364 353.2288   6.8672 14.09183723 46087
NOAA 17                 
1 27453U 02032A   03097.64978288  .00000398  00000-0  19499-3 0  3651
2 27453  98.7476 168.5865 0011278 214.4001 145.6449 14.23325222 40805
MSG-1                   
1 27509U 02040B   03092.06684608 -.00000094  00000-0  00000+0 0  1615
2 27509   1.5776 303.4938 0002385 115.7660 144.3478  1.00273168  2253
METSAT 1                
1 27525U 02043A   03089.66144079 -.00000093  00000-0  00000+0 0  1205
2 27525   0.0412 246.9568 0004537  23.9272 228.8532  1.00272629  2038



73! Martin OK1MJO 


Read previous mail | Read next mail


 15.09.2025 22:15:46lGo back Go up